Annapolis Naval Academy, MD

1:04 PM EDT on June 25, 2017 (GMT -0400)
Annapolis Naval Academy

Weather History for KNAK - March, 2013

Change the Weather History Date:

Thursday, March 14, 2013

  Actual Average (KBWI) Record (KBWI)
Temperature  
Mean Temperature 38 °F -  
Max Temperature 45 °F 52 °F 83 °F (2007)
Min Temperature 33 °F 34 °F 14 °F (1888)
Degree Days  
Heating Degree Days 26    
Moisture  
Dew Point 17 °F    
Average Humidity 43    
Maximum Humidity 56    
Minimum Humidity 28    
Precipitation  
Precipitation 0.00 in - - ()
Sea Level Pressure  
Sea Level Pressure 30.07 in    
Wind  
Wind Speed 12 mph (WNW)    
Max Wind Speed 20 mph    
Max Gust Speed 32 mph    
Visibility 10 miles    
Events      
Averages and records for this station are not official NWS values.
T = Trace of Precipitation, MM = Missing Value Source: NWS Daily Summary

Daily Weather History Graph

Daily Weather History Graph

Search for Another Location

Airport or City:

Trip Planner

Search our weather history database for the weather conditions in past years. The results will help you decide how hot, cold, wet, or windy it might be!

Date:

Astronomy

Mar. 14, 2013 Rise Set
Actual Time 7:18 AM EDT 7:12 PM EDT
Civil Twilight 6:51 AM EDT 7:38 PM EDT
Nautical Twilight 6:20 AM EDT 8:09 PM EDT
Astronomical Twilight 5:49 AM EDT 8:41 PM EDT
Moon 8:32 AM EDT (3/14) 10:24 PM EDT (3/14)
Length of Visible Light 12h 46m
Length of Day
11h 53m
Waxing Crescent, 9% of the Moon is Illuminated
Mar 14
Waxing Crescent
Mar 19
First Quarter
Mar 27
Full
Apr 3
Last Quarter
Apr 10
New

Hourly Weather History & Observations

Time (EDT) Temp. Windchill Dew Point Humidity Pressure Visibility Wind Dir Wind Speed Gust Speed Precip Events Conditions
12:54 AM 36.0 °F 27.5 °F 19.0 °F 50% 30.07 in 10.0 mi WNW 12.7 mph 18.4 mph N/A   Overcast
1:54 AM 35.1 °F 26.9 °F 19.0 °F 52% 30.06 in 10.0 mi West 11.5 mph - N/A   Clear
2:54 AM 35.1 °F 27.4 °F 19.9 °F 54% 30.06 in 10.0 mi WNW 10.4 mph - N/A   Clear
3:54 AM 35.1 °F 27.4 °F 19.0 °F 52% 30.06 in 10.0 mi WNW 10.4 mph - N/A   Mostly Cloudy
4:54 AM 33.1 °F 28.7 °F 18.0 °F 54% 30.06 in 10.0 mi West 4.6 mph - N/A   Partly Cloudy
5:54 AM 33.1 °F 23.4 °F 19.0 °F 56% 30.07 in 10.0 mi WNW 13.8 mph 19.6 mph N/A   Clear
6:54 AM 33.1 °F 26.1 °F 16.0 °F 50% 30.08 in 10.0 mi West 8.1 mph - N/A   Clear
7:54 AM 34.0 °F 24.6 °F 18.0 °F 52% 30.10 in 10.0 mi WNW 13.8 mph 25.3 mph N/A   Clear
8:54 AM 35.1 °F 26.9 °F 18.0 °F 50% 30.11 in 10.0 mi WNW 11.5 mph 21.9 mph N/A   Clear
9:54 AM 36.0 °F 25.6 °F 17.1 °F 46% 30.12 in 10.0 mi WNW 18.4 mph 25.3 mph N/A   Clear
10:54 AM 37.0 °F 26.7 °F 16.0 °F 42% 30.11 in 10.0 mi WNW 19.6 mph 32.2 mph N/A   Clear
11:54 AM 37.9 °F 29.2 °F 16.0 °F 41% 30.09 in 10.0 mi WNW 15.0 mph 32.2 mph N/A   Clear
12:54 PM 39.9 °F 31.8 °F 16.0 °F 38% 30.08 in 10.0 mi WNW 15.0 mph 31.1 mph N/A   Clear
1:54 PM 41.0 °F 33.5 °F 19.0 °F 41% 30.05 in 10.0 mi NW 13.8 mph 25.3 mph N/A   Clear
2:54 PM 43.0 °F 34.8 °F 16.0 °F 34% 30.03 in 10.0 mi WNW 18.4 mph 27.6 mph N/A   Clear
3:54 PM 44.1 °F 37.7 °F 18.0 °F 35% 30.02 in 10.0 mi WNW 12.7 mph 20.7 mph N/A   Clear
4:54 PM 44.1 °F 36.5 °F 12.9 °F 28% 30.02 in 10.0 mi WNW 17.3 mph 32.2 mph N/A   Clear
5:54 PM 44.1 °F 37.4 °F 15.1 °F 31% 30.02 in 10.0 mi WNW 13.8 mph 28.8 mph N/A   Clear
6:54 PM 43.0 °F 35.4 °F 14.0 °F 31% 30.04 in 10.0 mi WNW 16.1 mph 24.2 mph N/A   Clear
7:54 PM 41.0 °F 34.7 °F 14.0 °F 33% 30.06 in 10.0 mi WNW 10.4 mph 20.7 mph N/A   Clear
8:54 PM 41.0 °F 35.2 °F 16.0 °F 36% 30.07 in 10.0 mi WNW 9.2 mph - N/A   Clear
9:54 PM 39.9 °F 32.9 °F 16.0 °F 38% 30.08 in 10.0 mi WNW 11.5 mph - N/A   Clear
10:54 PM 39.0 °F 34.0 °F 16.0 °F 39% 30.09 in 10.0 mi WNW 6.9 mph - N/A   Clear
11:54 PM 37.9 °F 33.5 °F 16.0 °F 41% 30.09 in 10.0 mi WNW 5.8 mph - N/A   Clear